SL-14 R/B (17912 NORAD) Tracking and Keplerian Element Data

This shows tracking and keplerian element data for the satellite.

Feedback or suggestion? Click here.




ElementValue
Catalog17912
NameSL-14 R/B
Epoch Orbit96249
Epoch Day12.93588156
Epoch Year2024
RAAN317.0817
Inclination82.5032
Eccentricity0.0018286
Argument of Perigee240.6216
Mean Anonmoly119.3174
Mean Motion14.83913462
Decay Rate8.97E-06
L11 17912U 87038B 24012.93588156 .00000897 00000+0 10496-3 0 9996
L22 17912 82.5032 317.0817 0018286 240.6216 119.3174 14.83913462962492



Live tracking and technical data element details for SL-14 R/B (NORAD 17912). SL-14 R/B can be tracked NOW for your location showing map with azimuth and elevation plus other details from your city location.







IsCatalogInMostPopularTable: catalog: 17912, numindb: 456
Update: records affected: 1



GetName: 17912 SL-14 R/B

Hit Count: updated at: Sun, 14 Apr 2024 23:23:36 GMT